Regional Weather Roundup
Issued by NWS Green Bay, WI

Home | Current Version | Previous Version | Graphics & Text | Print | Product List | Glossary Off
Versions: 1 2 3 4 5 6 7 8 9 10 11 12 13 14 15 16 17 18 19 20 21 22 23 24 25 26 27 28 29 30 31 32 33 34 35 36 37 38 39 40 41 42 43 44 45 46 47 48 49 50

000
ASUS43 KGRB 220810
RWRGRB

NORTH-CENTRAL AND NORTHEAST WISCONSIN REGIONAL WEATHER ROUNDUP
NATIONAL WEATHER SERVICE GREEN BAY WI
300 AM CDT TUE APR 22 2014

WIZ005-009-010>012-018-019-220900-
NORTH CENTRAL WISCONSIN

CITY           SKY/WX    TMP DP  RH WIND       PRES   REMARKS
IRONWOOD       MOCLDY    36  25  64 NW10G16   29.95S
MANITOWISH WTR CLOUDY    35  27  70 NW9G20    29.95R
ARBOR VITAE    CLOUDY    37  27  69 NW10G20   29.94S
EAGLE RIVER    CLOUDY    35  26  70 NW13      29.91S
LAND O LAKES   CLOUDY    36  28  75 NW8G17    29.93R
RHINELANDER    CLOUDY    36  26  67 NW12G23   29.93S
PHILLIPS       CLOUDY    36  26  66 NW7       29.98R
ANTIGO         CLEAR     34  27  75 NW10      29.92S
TOMAHAWK       CLOUDY    37  26  67 NW10G16   29.95S
MERRILL        CLOUDY    37  27  67 NW9G17    29.95S
$$

WIZ013-073-220900-
NORTHEAST WISCONSIN

CITY           SKY/WX    TMP DP  RH WIND       PRES   REMARKS
IRON MOUNTAIN  CLOUDY    38  27  64 NW16G25   29.85S
MARINETTE      PTCLDY    39  27  60 NW10G16   29.87R
OCONTO         CLEAR     39  30  69 NW3       29.89S
$$

WIZ017-030-035>037-045-220900-
CENTRAL WISCONSIN

CITY           SKY/WX    TMP DP  RH WIND       PRES   REMARKS
MEDFORD        CLOUDY    37  27  68 NW12G22   29.97S
WAUSAU         CLOUDY    39  27  62 NW14G22   29.94R
MOSINEE        CLOUDY    36  30  80 NW10G16   29.96S
MARSHFIELD     MOCLDY    38  28  67 NW14      29.98R
WISC RAPIDS    MOCLDY    40  29  64 N12       29.98R
STEVENS POINT  MOCLDY    38  27  64 NW8       29.96S
WAUPACA        CLEAR     43  28  56 NW7G18    29.95R
SHAWANO        CLEAR     40  28  62 NW10      29.92S
CLINTONVILLE   CLEAR     41  30  65 NW13      29.92S
$$

WIZ038-039-048-051-220900-
FOX VALLEY

CITY           SKY/WX    TMP DP  RH WIND       PRES   REMARKS
NWS GREEN BAY  CLEAR     41  30  65 NW18G25   29.91R
APPLETON       CLEAR     39  28  65 NW13      29.92S
OSHKOSH        CLEAR     42  30  62 N10       29.92R
FOND DU LAC    CLEAR     41  31  67 NW8       29.92R
$$

WIZ022-050-052-220900-
EAST CENTRAL WISCONSIN

CITY           SKY/WX    TMP DP  RH WIND       PRES   REMARKS
STURGEON BAY   MOCLDY    39  28  65 NW16G23   29.87S
MANITOWOC      CLEAR     41  31  67 NW7       29.90R
SHEBOYGAN      CLEAR     42  31  64 N15       29.89R
$$

LMZ563-521-522-541>543-220900-
LAKESHORE

STATION/POSITION TIME  TEMP    WIND        PRES    VSBY  WAVE
                       AIR SEA DIR/SP/G                  HT/PER
                 (UTC) (F)     (DEG/KT/KT) (MB)    (MI)  (FT/S)
SHEBOYGAN LKSHOR 0800   45     330/ 13/ 15 1012.4R
KEWAUNEE LKSHORE 0800   41     320/  6/  8 1012.3S
NORTHPORT PIER   0800   38     310/ 17/ 22 1010.5S
SISTER BAY LKSHO 0700   36     330/ 11/ 12   N/A
MENOMINEE LKSHOR 0800   40     310/ 10/ 18 1012.2S
$$



USA.gov is the U.S. government's official web portal to all federal, state and local government web resources and services.